Year,Month,Day,Hour,Minute,Value (Times are PST for barometer in hPa)
2010,04,02,00,00,1006.27
2010,04,02,00,01,1006.27
2010,04,02,00,02,1006.27
2010,04,02,00,03,1006.20
2010,04,02,00,04,1006.27
2010,04,02,00,05,1006.27
2010,04,02,00,06,1006.20
2010,04,02,00,07,1006.20
2010,04,02,00,08,1006.20
2010,04,02,00,09,1006.20
2010,04,02,00,10,1006.16
2010,04,02,00,11,1006.16
2010,04,02,00,12,1006.13
2010,04,02,00,13,1006.10
2010,04,02,00,14,1006.10
2010,04,02,00,15,1006.03
2010,04,02,00,16,1005.96
2010,04,02,00,17,1005.93
2010,04,02,00,18,1005.86
2010,04,02,00,19,1005.83
2010,04,02,00,20,1005.79
2010,04,02,00,21,1005.83
2010,04,02,00,22,1005.83
2010,04,02,00,23,1005.83
2010,04,02,00,24,1005.79
2010,04,02,00,25,1005.79
2010,04,02,00,26,1005.72
2010,04,02,00,27,1005.79
2010,04,02,00,28,1005.72
2010,04,02,00,29,1005.72
2010,04,02,00,30,1005.76
2010,04,02,00,31,1005.66
2010,04,02,00,32,1005.66
2010,04,02,00,33,1005.59
2010,04,02,00,34,1005.59
2010,04,02,00,35,1005.55
2010,04,02,00,36,1005.55
2010,04,02,00,37,1005.52
2010,04,02,00,38,1005.45
2010,04,02,00,39,1005.42
2010,04,02,00,40,1005.39
2010,04,02,00,41,1005.35
2010,04,02,00,42,1005.39
2010,04,02,00,43,1005.32
2010,04,02,00,44,1005.28
2010,04,02,00,45,1005.22
2010,04,02,00,46,1005.18
2010,04,02,00,47,1005.08
2010,04,02,00,48,1005.04
2010,04,02,00,49,1004.91
2010,04,02,00,50,1004.91
2010,04,02,00,51,1004.95
2010,04,02,00,52,1004.91
2010,04,02,00,53,1004.91
2010,04,02,00,54,1004.91
2010,04,02,00,55,1004.88
2010,04,02,00,56,1004.84
2010,04,02,00,57,1004.84
2010,04,02,00,58,1004.88
2010,04,02,00,59,1004.84
2010,04,02,01,00,1004.78
2010,04,02,01,01,1004.71
2010,04,02,01,02,1004.64
2010,04,02,01,03,1004.57
2010,04,02,01,04,1004.57
2010,04,02,01,05,1004.50
2010,04,02,01,06,1004.50
2010,04,02,01,07,1004.47
2010,04,02,01,08,1004.44
2010,04,02,01,09,1004.40
2010,04,02,01,10,1004.37
2010,04,02,01,11,1004.34
2010,04,02,01,12,1004.30
2010,04,02,01,13,1004.23
2010,04,02,01,14,1004.23
2010,04,02,01,15,1004.20
2010,04,02,01,16,1004.17
2010,04,02,01,17,1004.17
2010,04,02,01,18,1004.17
2010,04,02,01,19,1004.13
2010,04,02,01,20,1004.06
2010,04,02,01,21,1004.03
2010,04,02,01,22,1004.06
2010,04,02,01,23,1004.06
2010,04,02,01,24,1004.06
2010,04,02,01,25,1004.06
2010,04,02,01,26,1004.00
2010,04,02,01,27,1004.00
2010,04,02,01,28,1003.96
2010,04,02,01,29,1004.00
2010,04,02,01,30,1003.93
2010,04,02,01,31,1003.93
2010,04,02,01,32,1003.93
2010,04,02,01,33,1003.93
2010,04,02,01,34,1003.93
2010,04,02,01,35,1003.90
2010,04,02,01,36,1003.83
2010,04,02,01,37,1003.86
2010,04,02,01,38,1003.86
2010,04,02,01,39,1003.90
2010,04,02,01,40,1003.90
2010,04,02,01,41,1003.83
2010,04,02,01,42,1003.79
2010,04,02,01,43,1003.79
2010,04,02,01,44,1003.79
2010,04,02,01,45,1003.79
2010,04,02,01,46,1003.76
2010,04,02,01,47,1003.73
2010,04,02,01,48,1003.69
2010,04,02,01,49,1003.66
2010,04,02,01,50,1003.62
2010,04,02,01,51,1003.62
2010,04,02,01,52,1003.69
2010,04,02,01,53,1003.69
2010,04,02,01,54,1003.69
2010,04,02,01,55,1003.73
2010,04,02,01,56,1003.70
2010,04,02,01,57,1003.79
2010,04,02,01,58,1003.79
2010,04,02,01,59,1003.79
2010,04,02,02,00,1003.79
2010,04,02,02,01,1003.79
2010,04,02,02,02,1003.79
2010,04,02,02,03,1003.73
2010,04,02,02,04,1003.73
2010,04,02,02,05,1003.66
2010,04,02,02,06,1003.66
2010,04,02,02,07,1003.66
2010,04,02,02,08,1003.59
2010,04,02,02,09,1003.59
2010,04,02,02,10,1003.56
2010,04,02,02,11,1003.52
2010,04,02,02,12,1003.52
2010,04,02,02,13,1003.49
2010,04,02,02,14,1003.49
2010,04,02,02,15,1003.49
2010,04,02,02,16,1003.48
2010,04,02,02,17,1003.39
2010,04,02,02,18,1003.39
2010,04,02,02,19,1003.34
2010,04,02,02,20,1003.25
2010,04,02,02,21,1003.24
2010,04,02,02,22,1003.15
2010,04,02,02,23,1003.18
2010,04,02,02,24,1003.15
2010,04,02,02,25,1003.12
2010,04,02,02,26,1003.12
2010,04,02,02,27,1003.05
2010,04,02,02,28,1003.01
2010,04,02,02,29,1003.05
2010,04,02,02,30,1002.98
2010,04,02,02,31,1002.91
2010,04,02,02,32,1002.88
2010,04,02,02,33,1002.88
2010,04,02,02,34,1002.81
2010,04,02,02,35,1002.78
2010,04,02,02,36,1002.81
2010,04,02,02,37,1002.78
2010,04,02,02,38,1002.74
2010,04,02,02,39,1002.81
2010,04,02,02,40,1002.74
2010,04,02,02,41,1002.71
2010,04,02,02,42,1002.68
2010,04,02,02,43,1002.64
2010,04,02,02,44,1002.64
2010,04,02,02,45,1002.61
2010,04,02,02,46,1002.57
2010,04,02,02,47,1002.51
2010,04,02,02,48,1002.41
2010,04,02,02,49,1002.37
2010,04,02,02,50,1002.41
2010,04,02,02,51,1002.41
2010,04,02,02,52,1002.37
2010,04,02,02,53,1002.37
2010,04,02,02,54,1002.37
2010,04,02,02,55,1002.37
2010,04,02,02,56,1002.30
2010,04,02,02,57,1002.34
2010,04,02,02,58,1002.30
2010,04,02,02,59,1002.27
2010,04,02,03,00,1002.24
2010,04,02,03,01,1002.20
2010,04,02,03,02,1002.24
2010,04,02,03,03,1002.24
2010,04,02,03,04,1002.20
2010,04,02,03,05,1002.20
2010,04,02,03,06,1002.20
2010,04,02,03,07,1002.17
2010,04,02,03,08,1002.13
2010,04,02,03,09,1002.10
2010,04,02,03,10,1002.17
2010,04,02,03,11,1002.10
2010,04,02,03,12,1002.07
2010,04,02,03,13,1002.03
2010,04,02,03,14,1001.97
2010,04,02,03,15,1001.93
2010,04,02,03,16,1001.86
2010,04,02,03,17,1001.83
2010,04,02,03,18,1001.80
2010,04,02,03,19,1001.80
2010,04,02,03,20,1001.76
2010,04,02,03,21,1001.79
2010,04,02,03,22,1001.69
2010,04,02,03,23,1001.72
2010,04,02,03,24,1001.63
2010,04,02,03,25,1001.63
2010,04,02,03,26,1001.59
2010,04,02,03,27,1001.56
2010,04,02,03,28,1001.56
2010,04,02,03,29,1001.63
2010,04,02,03,30,1001.56
2010,04,02,03,31,1001.59
2010,04,02,03,32,1001.59
2010,04,02,03,33,1001.66
2010,04,02,03,34,1001.59
2010,04,02,03,35,1001.52
2010,04,02,03,36,1001.49
2010,04,02,03,37,1001.50
2010,04,02,03,38,1001.56
2010,04,02,03,39,1001.56
2010,04,02,03,40,1001.58
2010,04,02,03,41,1001.52
2010,04,02,03,42,1001.55
2010,04,02,03,43,1001.49
2010,04,02,03,44,1001.51
2010,04,02,03,45,1001.46
2010,04,02,03,46,1001.42
2010,04,02,03,47,1001.41
2010,04,02,03,48,1001.32
2010,04,02,03,49,1001.31
2010,04,02,03,50,1001.26
2010,04,02,03,51,1001.32
2010,04,02,03,52,1001.29
2010,04,02,03,53,1001.32
2010,04,02,03,54,1001.32
2010,04,02,03,55,1001.29
2010,04,02,03,56,1001.25
2010,04,02,03,57,1001.25
2010,04,02,03,58,1001.25
2010,04,02,03,59,1001.22
2010,04,02,04,00,1001.22
2010,04,02,04,01,1001.15
2010,04,02,04,02,1001.19
2010,04,02,04,03,1001.21
2010,04,02,04,04,1001.15
2010,04,02,04,05,1001.14
2010,04,02,04,06,1001.08
2010,04,02,04,07,1001.04
2010,04,02,04,08,1000.95
2010,04,02,04,09,1000.98
2010,04,02,04,10,1000.95
2010,04,02,04,11,1000.91
2010,04,02,04,12,1000.80
2010,04,02,04,13,1000.75
2010,04,02,04,14,1000.71
2010,04,02,04,15,1000.71
2010,04,02,04,16,1000.68
2010,04,02,04,17,1000.61
2010,04,02,04,18,1000.58
2010,04,02,04,19,1000.60
2010,04,02,04,20,1000.48
2010,04,02,04,21,1000.41
2010,04,02,04,22,1000.34
2010,04,02,04,23,1000.37
2010,04,02,04,24,1000.31
2010,04,02,04,25,1000.24
2010,04,02,04,26,1000.23
2010,04,02,04,27,1000.16
2010,04,02,04,28,1000.07
2010,04,02,04,29,1000.07
2010,04,02,04,30,1000.07
2010,04,02,04,31,1000.07
2010,04,02,04,32,1000.03
2010,04,02,04,33,1000.07
2010,04,02,04,34,1000.03
2010,04,02,04,35,1000.00
2010,04,02,04,36,999.97
2010,04,02,04,37,999.99
2010,04,02,04,38,999.82
2010,04,02,04,39,999.73
2010,04,02,04,40,999.72
2010,04,02,04,41,999.65
2010,04,02,04,42,999.59
2010,04,02,04,43,999.56
2010,04,02,04,44,999.55
2010,04,02,04,45,999.49
2010,04,02,04,46,999.55
2010,04,02,04,47,999.46
2010,04,02,04,48,999.46
2010,04,02,04,49,999.46
2010,04,02,04,50,999.43
2010,04,02,04,51,999.43
2010,04,02,04,52,999.46
2010,04,02,04,53,999.43
2010,04,02,04,54,999.42
2010,04,02,04,55,999.32
2010,04,02,04,56,999.29
2010,04,02,04,57,999.29
2010,04,02,04,58,999.22
2010,04,02,04,59,999.19
2010,04,02,05,00,999.15
2010,04,02,05,01,999.05
2010,04,02,05,02,998.98
2010,04,02,05,03,998.88
2010,04,02,05,04,998.85
2010,04,02,05,05,998.85
2010,04,02,05,06,998.77
2010,04,02,05,07,998.68
2010,04,02,05,08,998.65
2010,04,02,05,09,998.61
2010,04,02,05,10,998.61
2010,04,02,05,11,998.61
2010,04,02,05,12,998.54
2010,04,02,05,13,998.51
2010,04,02,05,14,998.42
2010,04,02,05,15,998.48
2010,04,02,05,16,998.41
2010,04,02,05,17,998.43
2010,04,02,05,18,998.33
2010,04,02,05,19,998.26
2010,04,02,05,20,998.16
2010,04,02,05,21,998.04
2010,04,02,05,22,998.00
2010,04,02,05,23,997.97
2010,04,02,05,24,997.94
2010,04,02,05,25,997.90
2010,04,02,05,26,997.90
2010,04,02,05,27,997.86
2010,04,02,05,28,997.80
2010,04,02,05,29,997.79
2010,04,02,05,30,997.73
2010,04,02,05,31,997.70
2010,04,02,05,32,997.63
2010,04,02,05,33,997.60
2010,04,02,05,34,997.56
2010,04,02,05,35,997.53
2010,04,02,05,36,997.50
2010,04,02,05,37,997.50
2010,04,02,05,38,997.46
2010,04,02,05,39,997.50
2010,04,02,05,40,997.46
2010,04,02,05,41,997.43
2010,04,02,05,42,997.39
2010,04,02,05,43,997.36
2010,04,02,05,44,997.32
2010,04,02,05,45,997.26
2010,04,02,05,46,997.22
2010,04,02,05,47,997.26
2010,04,02,05,48,997.22
2010,04,02,05,49,997.22
2010,04,02,05,50,997.19
2010,04,02,05,51,997.19
2010,04,02,05,52,997.09
2010,04,02,05,53,997.09
2010,04,02,05,54,997.02
2010,04,02,05,55,996.92
2010,04,02,05,56,996.85
2010,04,02,05,57,996.78
2010,04,02,05,58,996.72
2010,04,02,05,59,996.65
2010,04,02,06,00,996.55
2010,04,02,06,01,996.51
2010,04,02,06,02,996.45
2010,04,02,06,03,996.38
2010,04,02,06,04,996.40
2010,04,02,06,05,996.24
2010,04,02,06,06,996.14
2010,04,02,06,07,996.07
2010,04,02,06,08,996.07
2010,04,02,06,09,996.03
2010,04,02,06,10,995.94
2010,04,02,06,11,995.90
2010,04,02,06,12,995.80
2010,04,02,06,13,995.73
2010,04,02,06,14,995.67
2010,04,02,06,15,995.60
2010,04,02,06,16,995.53
2010,04,02,06,17,995.40
2010,04,02,06,18,995.36
2010,04,02,06,19,995.33
2010,04,02,06,20,995.26
2010,04,02,06,21,995.22
2010,04,02,06,22,995.12
2010,04,02,06,23,995.09
2010,04,02,06,24,995.06
2010,04,02,06,25,994.96
2010,04,02,06,26,994.99
2010,04,02,06,27,994.92
2010,04,02,06,28,994.75
2010,04,02,06,29,994.82
2010,04,02,06,30,994.65
2010,04,02,06,31,994.68
2010,04,02,06,32,994.75
2010,04,02,06,33,994.72
2010,04,02,06,34,994.89
2010,04,02,06,35,994.79
2010,04,02,06,36,994.72
2010,04,02,06,37,994.85
2010,04,02,06,38,994.68
2010,04,02,06,39,994.72
2010,04,02,06,40,994.75
2010,04,02,06,41,994.72
2010,04,02,06,42,994.72
2010,04,02,06,43,994.55
2010,04,02,06,44,994.55
2010,04,02,06,45,994.48
2010,04,02,06,46,994.48
2010,04,02,06,47,994.48
2010,04,02,06,48,994.58
2010,04,02,06,49,994.48
2010,04,02,06,50,994.41
2010,04,02,06,51,994.41
2010,04,02,06,52,994.31
2010,04,02,06,53,994.28
2010,04,02,06,54,994.18
2010,04,02,06,55,994.11
2010,04,02,06,56,994.13
2010,04,02,06,57,994.01
2010,04,02,06,58,993.94
2010,04,02,06,59,993.91
2010,04,02,07,00,993.84
2010,04,02,07,01,993.60
2010,04,02,07,02,993.67
2010,04,02,07,03,993.74
2010,04,02,07,04,993.63
2010,04,02,07,05,993.63
2010,04,02,07,06,993.57
2010,04,02,07,07,993.59
2010,04,02,07,08,993.40
2010,04,02,07,09,993.53
2010,04,02,07,10,993.36
2010,04,02,07,11,993.40
2010,04,02,07,12,993.36
2010,04,02,07,13,993.16
2010,04,02,07,14,993.13
2010,04,02,07,15,992.89
2010,04,02,07,16,992.92
2010,04,02,07,17,992.89
2010,04,02,07,18,992.92
2010,04,02,07,19,992.83
2010,04,02,07,20,992.91
2010,04,02,07,21,992.82
2010,04,02,07,22,992.82
2010,04,02,07,23,992.79
2010,04,02,07,24,992.75
2010,04,02,07,25,992.55
2010,04,02,07,26,992.64
2010,04,02,07,27,992.45
2010,04,02,07,28,992.45
2010,04,02,07,29,992.42
2010,04,02,07,30,992.42
2010,04,02,07,31,992.31
2010,04,02,07,32,992.22
2010,04,02,07,33,992.31
2010,04,02,07,34,992.08
2010,04,02,07,35,992.14
2010,04,02,07,36,991.94
2010,04,02,07,37,992.01
2010,04,02,07,38,991.94
2010,04,02,07,39,991.87
2010,04,02,07,40,991.83
2010,04,02,07,41,991.70
2010,04,02,07,42,991.60
2010,04,02,07,43,991.60
2010,04,02,07,44,991.56
2010,04,02,07,45,991.40
2010,04,02,07,46,991.47
2010,04,02,07,47,991.34
2010,04,02,07,48,991.39
2010,04,02,07,49,991.22
2010,04,02,07,50,991.09
2010,04,02,07,51,991.09
2010,04,02,07,52,991.03
2010,04,02,07,53,990.99
2010,04,02,07,54,990.93
2010,04,02,07,55,990.89
2010,04,02,07,56,990.79
2010,04,02,07,57,990.65
2010,04,02,07,58,990.59
2010,04,02,07,59,990.59
2010,04,02,08,00,990.38
2010,04,02,08,01,990.45
2010,04,02,08,02,990.42
2010,04,02,08,03,990.38
2010,04,02,08,04,990.42
2010,04,02,08,05,990.38
2010,04,02,08,06,990.28
2010,04,02,08,07,990.25
2010,04,02,08,08,990.28
2010,04,02,08,09,990.25
2010,04,02,08,10,990.11
2010,04,02,08,11,990.08
2010,04,02,08,12,990.04
2010,04,02,12,19,985.30
2010,04,02,12,20,985.27
2010,04,02,17,05,983.27
2010,04,02,17,06,983.24
2010,04,02,17,07,983.24
2010,04,02,17,08,983.20
2010,04,02,17,09,983.20
2010,04,02,17,10,983.27
2010,04,02,17,11,983.14
2010,04,02,17,12,983.10
2010,04,02,17,13,983.04
2010,04,02,17,14,982.93
2010,04,02,17,15,983.13
2010,04,02,17,16,983.14
2010,04,02,17,17,983.27
2010,04,02,17,18,983.20
2010,04,02,17,19,983.27
2010,04,02,17,20,983.24
2010,04,02,17,21,983.24
2010,04,02,17,22,983.15
2010,04,02,17,23,983.40
2010,04,02,17,24,983.34
2010,04,02,17,25,983.37
2010,04,02,17,26,983.34
2010,04,02,17,27,983.37
2010,04,02,17,28,983.37
2010,04,02,17,29,983.41
2010,04,02,17,30,983.41
2010,04,02,17,31,983.34
2010,04,02,17,32,983.41
2010,04,02,17,33,983.34
2010,04,02,17,34,983.41
2010,04,02,17,35,983.34
2010,04,02,17,36,983.43
2010,04,02,17,37,983.51
2010,04,02,17,38,983.58
2010,04,02,17,39,983.64
2010,04,02,17,40,983.68
2010,04,02,17,41,983.61
2010,04,02,17,42,983.58
2010,04,02,17,43,983.64
2010,04,02,17,44,983.64
2010,04,02,17,45,983.77
2010,04,02,17,46,983.75
2010,04,02,17,47,983.84
2010,04,02,17,48,983.88
2010,04,02,17,49,983.85
2010,04,02,17,50,983.81
2010,04,02,17,51,983.92
2010,04,02,17,52,983.85
2010,04,02,17,53,983.81
2010,04,02,17,54,983.81
2010,04,02,17,55,983.92
2010,04,02,17,56,983.82
2010,04,02,17,57,983.65
2010,04,02,17,58,983.68
2010,04,02,17,59,983.68
2010,04,02,18,00,983.64
2010,04,02,18,01,983.58
2010,04,02,18,02,983.64
2010,04,02,18,03,983.61
2010,04,02,18,04,983.71
2010,04,02,18,05,983.78
2010,04,02,18,06,983.92
2010,04,02,18,07,983.92
2010,04,02,18,08,983.88
2010,04,02,18,09,984.02
2010,04,02,18,10,983.86
2010,04,02,18,11,983.95
2010,04,02,18,12,984.02
2010,04,02,18,13,983.95
2010,04,02,18,14,984.15
2010,04,02,18,15,984.19
2010,04,02,18,16,984.06
2010,04,02,18,17,984.08
2010,04,02,18,18,984.18
2010,04,02,18,19,984.25
2010,04,02,18,20,984.25
2010,04,02,18,21,984.32
2010,04,02,18,22,984.29
2010,04,02,18,23,984.22
2010,04,02,18,24,984.25
2010,04,02,18,25,984.29
2010,04,02,18,26,984.29
2010,04,02,18,27,984.32
2010,04,02,18,28,984.29
2010,04,02,18,29,984.22
2010,04,02,18,30,984.15
2010,04,02,18,31,984.12
2010,04,02,18,32,984.15
2010,04,02,18,33,984.05
2010,04,02,18,34,984.05
2010,04,02,18,35,984.05
2010,04,02,18,36,984.02
2010,04,02,18,37,984.02
2010,04,02,18,38,984.08
2010,04,02,18,39,984.05
2010,04,02,18,40,984.08
2010,04,02,18,41,983.98
2010,04,02,18,42,984.02
2010,04,02,18,43,984.05
2010,04,02,18,44,984.02
2010,04,02,18,45,984.05
2010,04,02,18,46,984.08
2010,04,02,18,47,984.05
2010,04,02,18,48,984.21
2010,04,02,18,49,984.29
2010,04,02,18,50,984.36
2010,04,02,18,51,984.42
2010,04,02,18,52,984.48
2010,04,02,18,53,984.53
2010,04,02,18,54,984.56
2010,04,02,18,55,984.66
2010,04,02,18,56,984.79
2010,04,02,18,57,984.83
2010,04,02,18,58,984.86
2010,04,02,18,59,984.86
2010,04,02,19,00,984.93
2010,04,02,19,01,984.99
2010,04,02,19,02,985.09
2010,04,02,19,03,985.10
2010,04,02,19,04,985.10
2010,04,02,19,05,985.20
2010,04,02,19,06,985.30
2010,04,02,19,07,985.30
2010,04,02,19,08,985.43
2010,04,02,19,09,985.47
2010,04,02,19,10,985.51
2010,04,02,19,11,985.57
2010,04,02,19,12,985.64
2010,04,02,19,13,985.64
2010,04,02,19,14,985.68
2010,04,02,19,15,985.64
2010,04,02,19,16,985.68
2010,04,02,19,17,985.68
2010,04,02,19,18,985.74
2010,04,02,19,19,985.81
2010,04,02,19,20,985.85
2010,04,02,19,21,985.88
2010,04,02,19,22,985.91
2010,04,02,19,23,985.98
2010,04,02,19,24,985.98
2010,04,02,19,25,985.98
2010,04,02,19,26,986.02
2010,04,02,19,27,986.02
2010,04,02,19,28,986.08
2010,04,02,19,29,986.12
2010,04,02,19,30,986.24
2010,04,02,19,31,986.29
2010,04,02,19,32,986.35
2010,04,02,19,33,986.42
2010,04,02,19,34,986.46
2010,04,02,19,35,986.42
2010,04,02,19,36,986.42
2010,04,02,19,37,986.42
2010,04,02,19,38,986.42
2010,04,02,19,39,986.42
2010,04,02,19,40,986.49
2010,04,02,19,41,986.49
2010,04,02,19,42,986.46
2010,04,02,19,43,986.49
2010,04,02,19,44,986.49
2010,04,02,19,45,986.49
2010,04,02,19,46,986.52
2010,04,02,19,47,986.61
2010,04,02,19,48,986.62
2010,04,02,19,49,986.66
2010,04,02,19,50,986.69
2010,04,02,19,51,986.69
2010,04,02,19,52,986.73
2010,04,02,19,53,986.76
2010,04,02,19,54,986.69
2010,04,02,19,55,986.66
2010,04,02,19,56,986.78
2010,04,02,19,57,986.79
2010,04,02,19,58,986.79
2010,04,02,19,59,986.79
2010,04,02,20,00,986.86
2010,04,02,20,01,986.93
2010,04,02,20,02,987.03
2010,04,02,20,03,987.06
2010,04,02,20,04,987.16
2010,04,02,20,05,987.23
2010,04,02,20,06,987.30
2010,04,02,20,07,987.34
2010,04,02,20,08,987.40
2010,04,02,20,09,987.44
2010,04,02,20,10,987.53
2010,04,02,20,11,987.51
2010,04,02,20,12,987.51
2010,04,02,20,13,987.57
2010,04,02,20,14,987.61
2010,04,02,20,15,987.64
2010,04,02,20,16,987.67
2010,04,02,20,17,987.74
2010,04,02,20,18,987.74
2010,04,02,20,19,987.81
2010,04,02,20,20,987.78
2010,04,02,20,21,987.84
2010,04,02,20,22,987.84
2010,04,02,20,23,987.84
2010,04,02,20,24,987.97
2010,04,02,20,25,987.95
2010,04,02,20,26,987.88
2010,04,02,20,27,987.95
2010,04,02,20,28,988.01
2010,04,02,20,29,988.01
2010,04,02,20,30,988.05
2010,04,02,20,31,988.05
2010,04,02,20,32,988.17
2010,04,02,20,33,988.11
2010,04,02,20,34,988.21
2010,04,02,20,35,988.18
2010,04,02,20,36,988.18
2010,04,02,20,37,988.18
2010,04,02,20,38,988.22
2010,04,02,20,39,988.18
2010,04,02,20,40,988.25
2010,04,02,20,41,988.25
2010,04,02,20,42,988.25
2010,04,02,20,43,988.32
2010,04,02,20,44,988.32
2010,04,02,20,45,988.44
2010,04,02,20,46,988.42
2010,04,02,20,47,988.52
2010,04,02,20,48,988.62
2010,04,02,20,49,988.62
2010,04,02,20,50,988.69
2010,04,02,20,51,988.69
2010,04,02,20,52,988.75
2010,04,02,20,53,988.83
2010,04,02,20,54,988.92
2010,04,02,20,55,988.93
2010,04,02,20,56,988.96
2010,04,02,20,57,988.96
2010,04,02,20,58,989.00
2010,04,02,20,59,989.05
2010,04,02,21,00,989.10
2010,04,02,21,01,989.15
2010,04,02,21,02,989.20
2010,04,02,21,03,989.27
2010,04,02,21,04,989.23
2010,04,02,21,05,989.23
2010,04,02,21,06,989.27
2010,04,02,21,07,989.27
2010,04,02,21,08,989.33
2010,04,02,21,09,989.30
2010,04,02,21,10,989.39
2010,04,02,21,11,989.33
2010,04,02,21,12,989.40
2010,04,02,21,13,989.49
2010,04,02,21,14,989.54
2010,04,02,21,15,989.54
2010,04,02,21,16,989.64
2010,04,02,21,17,989.60
2010,04,02,21,18,989.64
2010,04,02,21,19,989.74
2010,04,02,21,20,989.74
2010,04,02,21,21,989.74
2010,04,02,21,22,989.74
2010,04,02,21,23,989.87
2010,04,02,21,24,989.84
2010,04,02,21,25,989.93
2010,04,02,21,26,989.84
2010,04,02,21,27,989.84
2010,04,02,21,28,989.91
2010,04,02,21,29,989.94
2010,04,02,21,30,989.94
2010,04,02,21,31,990.01
2010,04,02,21,32,990.08
2010,04,02,21,33,990.04
2010,04,02,21,34,990.04
2010,04,02,21,35,990.14
2010,04,02,21,36,990.21
2010,04,02,21,37,990.28
2010,04,02,21,38,990.25
2010,04,02,21,39,990.34
2010,04,02,21,40,990.32
2010,04,02,21,41,990.51
2010,04,02,21,42,990.45
2010,04,02,21,43,990.52
2010,04,02,21,44,990.59
2010,04,02,21,45,990.62
2010,04,02,21,46,990.72
2010,04,02,21,47,990.72
2010,04,02,21,48,990.76
2010,04,02,21,49,990.76
2010,04,02,21,50,990.82
2010,04,02,21,51,990.88
2010,04,02,21,52,990.93
2010,04,02,21,53,990.99
2010,04,02,21,54,990.93
2010,04,02,21,55,990.96
2010,04,02,21,56,990.93
2010,04,02,21,57,990.99
2010,04,02,21,58,990.99
2010,04,02,21,59,991.06
2010,04,02,22,00,991.09
2010,04,02,22,01,991.15
2010,04,02,22,02,991.16
2010,04,02,22,03,991.16
2010,04,02,22,04,991.23
2010,04,02,22,05,991.20
2010,04,02,22,06,991.23
2010,04,02,22,07,991.26
2010,04,02,22,08,991.30
2010,04,02,22,09,991.33
2010,04,02,22,10,991.30
2010,04,02,22,11,991.30
2010,04,02,22,12,991.37
2010,04,02,22,13,991.37
2010,04,02,22,14,991.40
2010,04,02,22,15,991.43
2010,04,02,22,16,991.40
2010,04,02,22,17,991.49
2010,04,02,22,18,991.53
2010,04,02,22,19,991.53
2010,04,02,22,20,991.50
2010,04,02,22,21,991.56
2010,04,02,22,22,991.57
2010,04,02,22,23,991.66
2010,04,02,22,24,991.70
2010,04,02,22,25,991.77
2010,04,02,22,26,991.70
2010,04,02,22,27,991.74
2010,04,02,22,28,991.70
2010,04,02,22,29,991.77
2010,04,02,22,30,991.77
2010,04,02,22,31,991.74
2010,04,02,22,32,991.81
2010,04,02,22,33,991.86
2010,04,02,22,34,991.87
2010,04,02,22,35,991.91
2010,04,02,22,36,991.91
2010,04,02,22,37,991.98
2010,04,02,22,38,991.91
2010,04,02,22,39,991.94
2010,04,02,22,40,992.03
2010,04,02,22,41,992.04
2010,04,02,22,42,992.04
2010,04,02,22,43,992.08
2010,04,02,22,44,992.01
2010,04,02,22,45,992.01
2010,04,02,22,46,992.11
2010,04,02,22,47,992.08
2010,04,02,22,48,992.13
2010,04,02,22,49,992.14
2010,04,02,22,50,992.24
2010,04,02,22,51,992.21
2010,04,02,22,52,992.25
2010,04,02,22,53,992.31
2010,04,02,22,54,992.31
2010,04,02,22,55,992.41
2010,04,02,22,56,992.42
2010,04,02,22,57,992.45
2010,04,02,22,58,992.45
2010,04,02,22,59,992.51
2010,04,02,23,00,992.52
2010,04,02,23,01,992.61
2010,04,02,23,02,992.65
2010,04,02,23,03,992.65
2010,04,02,23,04,992.72
2010,04,02,23,05,992.72
2010,04,02,23,06,992.75
2010,04,02,23,07,992.79
2010,04,02,23,08,992.85
2010,04,02,23,09,992.86
2010,04,02,23,10,992.82
2010,04,02,23,11,992.86
2010,04,02,23,12,992.92
2010,04,02,23,13,992.89
2010,04,02,23,14,992.86
2010,04,02,23,15,992.92
2010,04,02,23,16,992.96
2010,04,02,23,17,992.92
2010,04,02,23,18,993.03
2010,04,02,23,19,993.06
2010,04,02,23,20,993.13
2010,04,02,23,21,993.09
2010,04,02,23,22,993.18
2010,04,02,23,23,993.23
2010,04,02,23,24,993.26
2010,04,02,23,25,993.30
2010,04,02,23,26,993.36
2010,04,02,23,27,993.40
2010,04,02,23,28,993.43
2010,04,02,23,29,993.43
2010,04,02,23,30,993.47
2010,04,02,23,31,993.47
2010,04,02,23,32,993.50
2010,04,02,23,33,993.50
2010,04,02,23,34,993.50
2010,04,02,23,35,993.59
2010,04,02,23,36,993.63
2010,04,02,23,37,993.67
2010,04,02,23,38,993.67
2010,04,02,23,39,993.70
2010,04,02,23,40,993.67
2010,04,02,23,41,993.67
2010,04,02,23,42,993.67
2010,04,02,23,43,993.70
2010,04,02,23,44,993.74
2010,04,02,23,45,993.67
2010,04,02,23,46,993.77
2010,04,02,23,47,993.84
2010,04,02,23,48,993.84
2010,04,02,23,49,993.93
2010,04,02,23,50,993.94
2010,04,02,23,51,993.91
2010,04,02,23,52,993.97
2010,04,02,23,53,994.01
2010,04,02,23,54,994.04
2010,04,02,23,55,993.98
2010,04,02,23,56,994.04
2010,04,02,23,57,994.11
2010,04,02,23,58,994.17
2010,04,02,23,59,994.24
